owner,sensor,date,latitude,longitude,vertical_datum,direction_of_sea_water_velocity,sea_water_speed,upward_sea_water_velocity,qcFlag 
TABS,ioos:station:wmo:42048:1,1999-12-01T00:00:00Z,27.9396,-96.8429,2.0,46.59297119,45.53405868,-99999.0,'11111222,11111222,99999999' 
TABS,ioos:station:wmo:42048:1,1999-12-01T00:30:00Z,27.9396,-96.8429,2.0,46.10393099,44.04678422,-99999.0,'11111222,11111222,99999999' 
TABS,ioos:station:wmo:42048:1,1999-12-01T01:00:00Z,27.9396,-96.8429,2.0,46.55697847,42.68257958,-99999.0,'11111222,11111222,99999999' 
TABS,ioos:station:wmo:42048:1,1999-12-01T01:30:00Z,27.9396,-96.8429,2.0,48.42158693,40.63915476,-99999.0,'11111222,11111222,99999999' 
TABS,ioos:station:wmo:42048:1,1999-12-01T02:00:00Z,27.9396,-96.8429,2.0,51.21124305,40.91294416,-99999.0,'11111222,11111222,99999999' 
TABS,ioos:station:wmo:42048:1,1999-12-01T02:30:00Z,27.9396,-96.8429,2.0,56.81654716,51.45045384,-99999.0,'11111222,11111222,99999999' 
TABS,ioos:station:wmo:42048:1,1999-12-01T03:00:00Z,27.9396,-96.8429,2.0,51.64617737,48.26618899,-99999.0,'11111222,11111222,99999999' 
TABS,ioos:station:wmo:42048:1,1999-12-01T03:30:00Z,27.9396,-96.8429,2.0,49.38290361,46.91229796,-99999.0,'11111222,11111222,99999999' 
TABS,ioos:station:wmo:42048:1,1999-12-01T04:00:00Z,27.9396,-96.8429,2.0,46.37700597,43.84620964,-99999.0,'11111222,11111222,99999999' 
TABS,ioos:station:wmo:42048:1,1999-12-01T04:30:00Z,27.9396,-96.8429,2.0,43.82694588,41.09859,-99999.0,'11111222,11111222,99999999' 
TABS,ioos:station:wmo:42048:1,1999-12-01T05:00:00Z,27.9396,-96.8429,2.0,41.63124131,39.46819479,-99999.0,'11111222,11111222,99999999' 
TABS,ioos:station:wmo:42048:1,1999-12-01T05:30:00Z,27.9396,-96.8429,2.0,41.25137416,35.47366629,-99999.0,'11111222,11111222,99999999' 
TABS,ioos:station:wmo:42048:1,1999-12-01T06:00:00Z,27.9396,-96.8429,2.0,43.48497021,31.82386055,-99999.0,'11111222,11111222,99999999' 
TABS,ioos:station:wmo:42048:1,1999-12-01T06:30:00Z,27.9396,-96.8429,2.0,44.66673634,36.45904277,-99999.0,'11111222,11111222,99999999' 
TABS,ioos:station:wmo:42048:1,1999-12-01T07:00:00Z,27.9396,-96.8429,2.0,42.2458495,37.22975289,-99999.0,'11111222,11111222,99999999' 
TABS,ioos:station:wmo:42048:1,1999-12-01T07:30:00Z,27.9396,-96.8429,2.0,51.05218404,31.99103781,-99999.0,'11111222,11111222,99999999' 
TABS,ioos:station:wmo:42048:1,1999-12-01T08:00:00Z,27.9396,-96.8429,2.0,52.0040059,31.95217207,-99999.0,'11111222,11111222,99999999' 
TABS,ioos:station:wmo:42048:1,1999-12-01T08:30:00Z,27.9396,-96.8429,2.0,42.25002649,30.80168989,-99999.0,'11111222,11111222,99999999' 
TABS,ioos:station:wmo:42048:1,1999-12-01T09:00:00Z,27.9396,-96.8429,2.0,40.4589852,30.54390283,-99999.0,'11111222,11111222,99999999' 
TABS,ioos:station:wmo:42048:1,1999-12-01T09:30:00Z,27.9396,-96.8429,2.0,41.40201926,30.19641369,-99999.0,'11111222,11111222,99999999' 
TABS,ioos:station:wmo:42048:1,1999-12-01T10:00:00Z,27.9396,-96.8429,2.0,42.19203188,30.16604217,-99999.0,'11111222,11111222,99999999' 
TABS,ioos:station:wmo:42048:1,1999-12-01T10:30:00Z,27.9396,-96.8429,2.0,40.56721742,27.26274014,-99999.0,'11111222,11111222,99999999' 
TABS,ioos:station:wmo:42048:1,1999-12-01T11:00:00Z,27.9396,-96.8429,2.0,43.4446788,27.0921723,-99999.0,'11111222,11111222,99999999' 
TABS,ioos:station:wmo:42048:1,1999-12-01T11:30:00Z,27.9396,-96.8429,2.0,45.21609684,28.13597875,-99999.0,'11111222,11111222,99999999' 
TABS,ioos:station:wmo:42048:1,1999-12-01T12:00:00Z,27.9396,-96.8429,2.0,45.66877736,26.65974118,-99999.0,'11111222,11111222,99999999' 
TABS,ioos:station:wmo:42048:1,1999-12-01T12:30:00Z,27.9396,-96.8429,2.0,46.86027501,22.87281574,-99999.0,'11111222,11111222,99999999' 
TABS,ioos:station:wmo:42048:1,1999-12-01T13:00:00Z,27.9396,-96.8429,2.0,45.23519741,24.12668647,-99999.0,'11111222,11111222,99999999' 
TABS,ioos:station:wmo:42048:1,1999-12-01T13:30:00Z,27.9396,-96.8429,2.0,44.22425616,23.49931276,-99999.0,'11111222,11111222,99999999' 
TABS,ioos:station:wmo:42048:1,1999-12-01T14:00:00Z,27.9396,-96.8429,2.0,40.01104833,21.79073656,-99999.0,'11111222,11111222,99999999' 
TABS,ioos:station:wmo:42048:1,1999-12-01T14:30:00Z,27.9396,-96.8429,2.0,42.73115116,23.93311513,-99999.0,'11111222,11111222,99999999' 
TABS,ioos:station:wmo:42048:1,1999-12-01T15:00:00Z,27.9396,-96.8429,2.0,44.42332291,21.07284983,-99999.0,'11111222,11111222,99999999' 
TABS,ioos:station:wmo:42048:1,1999-12-01T15:30:00Z,27.9396,-96.8429,2.0,47.15742067,22.35334651,-99999.0,'11111222,11111222,99999999' 
TABS,ioos:station:wmo:42048:1,1999-12-01T16:00:00Z,27.9396,-96.8429,2.0,49.96081736,19.46176765,-99999.0,'11111222,11111222,99999999' 
TABS,ioos:station:wmo:42048:1,1999-12-01T16:30:00Z,27.9396,-96.8429,2.0,46.44180538,16.86276371,-99999.0,'11111222,11111222,99999999' 
TABS,ioos:station:wmo:42048:1,1999-12-01T17:00:00Z,27.9396,-96.8429,2.0,45.94549212,19.28542714,-99999.0,'11111222,11111222,99999999' 
TABS,ioos:station:wmo:42048:1,1999-12-01T17:30:00Z,27.9396,-96.8429,2.0,47.53733977,21.40389217,-99999.0,'11111222,11111222,99999999' 
TABS,ioos:station:wmo:42048:1,1999-12-01T18:00:00Z,27.9396,-96.8429,2.0,43.70404476,18.75727059,-99999.0,'11111222,11111222,99999999' 
TABS,ioos:station:wmo:42048:1,1999-12-01T18:30:00Z,27.9396,-96.8429,2.0,48.79715601,19.00632526,-99999.0,'11111222,11111222,99999999' 
TABS,ioos:station:wmo:42048:1,1999-12-01T19:00:00Z,27.9396,-96.8429,2.0,49.35408914,18.06922799,-99999.0,'11111222,11111222,99999999' 
TABS,ioos:station:wmo:42048:1,1999-12-01T19:30:00Z,27.9396,-96.8429,2.0,56.68359938,18.71598247,-99999.0,'11111222,11111222,99999999' 
TABS,ioos:station:wmo:42048:1,1999-12-01T20:00:00Z,27.9396,-96.8429,2.0,53.38896411,19.48419873,-99999.0,'11111222,11111222,99999999' 
TABS,ioos:station:wmo:42048:1,1999-12-01T20:30:00Z,27.9396,-96.8429,2.0,46.62923503,18.65394596,-99999.0,'11111222,11111222,99999999' 
TABS,ioos:station:wmo:42048:1,1999-12-01T21:00:00Z,27.9396,-96.8429,2.0,39.05573166,10.17340159,-99999.0,'11111222,11111222,99999999' 
TABS,ioos:station:wmo:42048:1,1999-12-01T21:30:00Z,27.9396,-96.8429,2.0,54.79023361,14.22196892,-99999.0,'11111222,11111222,99999999' 
TABS,ioos:station:wmo:42048:1,1999-12-01T22:00:00Z,27.9396,-96.8429,2.0,70.80639172,17.67235695,-99999.0,'11111222,11111222,99999999' 
TABS,ioos:station:wmo:42048:1,1999-12-01T22:30:00Z,27.9396,-96.8429,2.0,65.50461804,14.7363564,-99999.0,'11111222,11111222,99999999' 
TABS,ioos:station:wmo:42048:1,1999-12-01T23:00:00Z,27.9396,-96.8429,2.0,61.76517966,18.26301454,-99999.0,'11111222,11111222,99999999' 
TABS,ioos:station:wmo:42048:1,1999-12-01T23:30:00Z,27.9396,-96.8429,2.0,59.30829413,21.3157993,-99999.0,'11111222,11111222,99999999' 
TABS,ioos:station:wmo:42048:1,1999-12-02T00:00:00Z,27.9396,-96.8429,2.0,55.98663528,22.11347553,-99999.0,'11111222,11111222,99999999' 
TABS,ioos:station:wmo:42048:1,1999-12-02T00:30:00Z,27.9396,-96.8429,2.0,54.6369156,21.37339,-99999.0,'11111222,11111222,99999999' 
TABS,ioos:station:wmo:42048:1,1999-12-02T01:00:00Z,27.9396,-96.8429,2.0,46.21985708,19.59836983,-99999.0,'11111222,11111222,99999999' 
TABS,ioos:station:wmo:42048:1,1999-12-02T01:30:00Z,27.9396,-96.8429,2.0,43.56562259,21.18448725,-99999.0,'11111222,11111222,99999999' 
TABS,ioos:station:wmo:42048:1,1999-12-02T02:00:00Z,27.9396,-96.8429,2.0,52.16906113,19.43473437,-99999.0,'11111222,11111222,99999999' 
TABS,ioos:station:wmo:42048:1,1999-12-02T02:30:00Z,27.9396,-96.8429,2.0,54.78100949,18.60572224,-99999.0,'11111222,11111222,99999999' 
TABS,ioos:station:wmo:42048:1,1999-12-02T03:00:00Z,27.9396,-96.8429,2.0,49.56838827,17.22326914,-99999.0,'11111222,11111222,99999999' 
TABS,ioos:station:wmo:42048:1,1999-12-02T03:30:00Z,27.9396,-96.8429,2.0,54.24113168,18.36145147,-99999.0,'11111222,11111222,99999999' 
TABS,ioos:station:wmo:42048:1,1999-12-02T04:00:00Z,27.9396,-96.8429,2.0,48.92714942,13.83520871,-99999.0,'11111222,11111222,99999999' 
TABS,ioos:station:wmo:42048:1,1999-12-02T04:30:00Z,27.9396,-96.8429,2.0,48.72969686,14.6752615,-99999.0,'11111222,11111222,99999999' 
TABS,ioos:station:wmo:42048:1,1999-12-02T05:00:00Z,27.9396,-96.8429,2.0,50.86184574,14.40128466,-99999.0,'11111222,11111222,99999999' 
TABS,ioos:station:wmo:42048:1,1999-12-02T05:30:00Z,27.9396,-96.8429,2.0,51.81234261,16.87046235,-99999.0,'11111222,11111222,99999999' 
TABS,ioos:station:wmo:42048:1,1999-12-02T06:00:00Z,27.9396,-96.8429,2.0,52.03745229,17.19912788,-99999.0,'11111222,11111222,99999999' 
TABS,ioos:station:wmo:42048:1,1999-12-02T06:30:00Z,27.9396,-96.8429,2.0,47.08649832,17.28607821,-99999.0,'11111222,11111222,99999999' 
TABS,ioos:station:wmo:42048:1,1999-12-02T07:00:00Z,27.9396,-96.8429,2.0,43.35255434,14.75634779,-99999.0,'11111222,11111222,99999999' 
TABS,ioos:station:wmo:42048:1,1999-12-02T07:30:00Z,27.9396,-96.8429,2.0,44.26052954,16.43453072,-99999.0,'11111222,11111222,99999999' 
TABS,ioos:station:wmo:42048:1,1999-12-02T08:00:00Z,27.9396,-96.8429,2.0,43.32852774,14.54430473,-99999.0,'11111222,11111222,99999999' 
TABS,ioos:station:wmo:42048:1,1999-12-02T08:30:00Z,27.9396,-96.8429,2.0,48.24920919,12.97505299,-99999.0,'11111222,11111222,99999999' 
TABS,ioos:station:wmo:42048:1,1999-12-02T09:00:00Z,27.9396,-96.8429,2.0,46.49680057,11.91174211,-99999.0,'11111222,11111222,99999999' 
TABS,ioos:station:wmo:42048:1,1999-12-02T09:30:00Z,27.9396,-96.8429,2.0,41.853828,13.39865665,-99999.0,'11111222,11111222,99999999' 
TABS,ioos:station:wmo:42048:1,1999-12-02T10:00:00Z,27.9396,-96.8429,2.0,46.85970022,13.07421891,-99999.0,'11111222,11111222,99999999' 
TABS,ioos:station:wmo:42048:1,1999-12-02T10:30:00Z,27.9396,-96.8429,2.0,41.67699256,10.97861558,-99999.0,'11111222,11111222,99999999' 
TABS,ioos:station:wmo:42048:1,1999-12-02T11:00:00Z,27.9396,-96.8429,2.0,44.05471834,12.85695143,-99999.0,'11111222,11111222,99999999' 
TABS,ioos:station:wmo:42048:1,1999-12-02T11:30:00Z,27.9396,-96.8429,2.0,35.62004765,9.718312611,-99999.0,'11133222,11111222,99999999' 
TABS,ioos:station:wmo:42048:1,1999-12-02T12:00:00Z,27.9396,-96.8429,2.0,30.23266217,10.34735232,-99999.0,'11111222,11111222,99999999' 
TABS,ioos:station:wmo:42048:1,1999-12-02T12:30:00Z,27.9396,-96.8429,2.0,47.03421788,8.964691852,-99999.0,'11133222,11111222,99999999' 
TABS,ioos:station:wmo:42048:1,1999-12-02T13:00:00Z,27.9396,-96.8429,2.0,39.82671054,6.979290795,-99999.0,'11133222,11111222,99999999' 
TABS,ioos:station:wmo:42048:1,1999-12-02T13:30:00Z,27.9396,-96.8429,2.0,51.05124952,4.024649053,-99999.0,'11133222,11111222,99999999' 
TABS,ioos:station:wmo:42048:1,1999-12-02T14:00:00Z,27.9396,-96.8429,2.0,0.000210459,1.49,-99999.0,'11133222,11111222,99999999' 
TABS,ioos:station:wmo:42048:1,1999-12-02T14:30:00Z,27.9396,-96.8429,2.0,11.38404631,1.519901313,-99999.0,'11133222,11111222,99999999' 
TABS,ioos:station:wmo:42048:1,1999-12-02T15:00:00Z,27.9396,-96.8429,2.0,51.99811498,4.352849641,-99999.0,'11133222,11111222,99999999' 
TABS,ioos:station:wmo:42048:1,1999-12-02T15:30:00Z,27.9396,-96.8429,2.0,58.99854683,2.601634102,-99999.0,'11133222,11111222,99999999' 
TABS,ioos:station:wmo:42048:1,1999-12-02T16:00:00Z,27.9396,-96.8429,2.0,47.21975559,5.477116029,-99999.0,'11133222,11111222,99999999' 
TABS,ioos:station:wmo:42048:1,1999-12-02T16:30:00Z,27.9396,-96.8429,2.0,42.93999902,5.901084646,-99999.0,'11133222,11111222,99999999' 
TABS,ioos:station:wmo:42048:1,1999-12-02T17:00:00Z,27.9396,-96.8429,2.0,69.73297941,6.033547878,-99999.0,'11133222,11111222,99999999' 
TABS,ioos:station:wmo:42048:1,1999-12-02T17:30:00Z,27.9396,-96.8429,2.0,71.6131208,3.772598574,-99999.0,'11133222,11111222,99999999' 
TABS,ioos:station:wmo:42048:1,1999-12-02T18:00:00Z,27.9396,-96.8429,2.0,65.35615716,2.134408583,-99999.0,'11133222,11111222,99999999' 
TABS,ioos:station:wmo:42048:1,1999-12-02T18:30:00Z,27.9396,-96.8429,2.0,27.47009005,4.530838774,-99999.0,'11133222,11111222,99999999' 
TABS,ioos:station:wmo:42048:1,1999-12-02T19:00:00Z,27.9396,-96.8429,2.0,29.7154197,4.801385217,-99999.0,'11133222,11111222,99999999' 
TABS,ioos:station:wmo:42048:1,1999-12-02T19:30:00Z,27.9396,-96.8429,2.0,15.92742031,4.336473221,-99999.0,'11133222,11111222,99999999' 
TABS,ioos:station:wmo:42048:1,1999-12-02T20:00:00Z,27.9396,-96.8429,2.0,0.000210459,4.47,-99999.0,'11133222,11111222,99999999' 
TABS,ioos:station:wmo:42048:1,1999-12-02T20:30:00Z,27.9396,-96.8429,2.0,19.23880999,3.156263614,-99999.0,'11133222,11111222,99999999' 
TABS,ioos:station:wmo:42048:1,1999-12-02T21:00:00Z,27.9396,-96.8429,2.0,308.1212185,2.656633208,-99999.0,'11133222,11111222,99999999' 
TABS,ioos:station:wmo:42048:1,1999-12-02T21:30:00Z,27.9396,-96.8429,2.0,300.6031112,3.8107742,-99999.0,'11133222,11111222,99999999' 
TABS,ioos:station:wmo:42048:1,1999-12-02T22:00:00Z,27.9396,-96.8429,2.0,356.796707,2.684194479,-99999.0,'11133222,11111222,99999999' 
TABS,ioos:station:wmo:42048:1,1999-12-02T22:30:00Z,27.9396,-96.8429,2.0,301.2461488,4.877478857,-99999.0,'11133222,11111222,99999999' 
TABS,ioos:station:wmo:42048:1,1999-12-02T23:00:00Z,27.9396,-96.8429,2.0,292.6900128,6.94769746,-99999.0,'11133222,11111222,99999999' 
TABS,ioos:station:wmo:42048:1,1999-12-02T23:30:00Z,27.9396,-96.8429,2.0,280.9810453,5.45996337,-99999.0,'11133222,11111222,99999999' 
TABS,ioos:station:wmo:42048:1,1999-12-03T00:00:00Z,27.9396,-96.8429,2.0,262.3545837,4.510088691,-99999.0,'11133222,11111222,99999999' 
TABS,ioos:station:wmo:42048:1,1999-12-03T00:30:00Z,27.9396,-96.8429,2.0,259.0956796,4.704944208,-99999.0,'11133222,11111222,99999999' 
TABS,ioos:station:wmo:42048:1,1999-12-03T01:00:00Z,27.9396,-96.8429,2.0,250.1898418,3.953985331,-99999.0,'11133222,11111222,99999999' 
TABS,ioos:station:wmo:42048:1,1999-12-03T01:30:00Z,27.9396,-96.8429,2.0,270.0004209,3.72,-99999.0,'11133222,11111222,99999999' 
TABS,ioos:station:wmo:42048:1,1999-12-03T02:00:00Z,27.9396,-96.8429,2.0,271.695064,5.07221845,-99999.0,'11133222,11111222,99999999' 
TABS,ioos:station:wmo:42048:1,1999-12-03T02:30:00Z,27.9396,-96.8429,2.0,312.8687074,2.851613578,-99999.0,'11133222,11111222,99999999' 
TABS,ioos:station:wmo:42048:1,1999-12-03T03:00:00Z,27.9396,-96.8429,2.0,308.3268003,4.563474553,-99999.0,'11133222,11111222,99999999' 
TABS,ioos:station:wmo:42048:1,1999-12-03T03:30:00Z,27.9396,-96.8429,2.0,280.7072372,2.42216845,-99999.0,'11133222,11111222,99999999' 
TABS,ioos:station:wmo:42048:1,1999-12-03T04:00:00Z,27.9396,-96.8429,2.0,291.2825468,6.557171646,-99999.0,'11133222,11111222,99999999' 
TABS,ioos:station:wmo:42048:1,1999-12-03T04:30:00Z,27.9396,-96.8429,2.0,270.0004209,5.51,-99999.0,'11133222,11111222,99999999' 
TABS,ioos:station:wmo:42048:1,1999-12-03T05:00:00Z,27.9396,-96.8429,2.0,285.6197765,3.862641583,-99999.0,'11133222,11111222,99999999' 
TABS,ioos:station:wmo:42048:1,1999-12-03T05:30:00Z,27.9396,-96.8429,2.0,300.6031112,3.8107742,-99999.0,'11133222,11111222,99999999' 
TABS,ioos:station:wmo:42048:1,1999-12-03T06:00:00Z,27.9396,-96.8429,2.0,253.8008884,3.728002146,-99999.0,'11133222,11111222,99999999' 
TABS,ioos:station:wmo:42048:1,1999-12-03T06:30:00Z,27.9396,-96.8429,2.0,302.1847376,4.749873683,-99999.0,'11133222,11111222,99999999' 
TABS,ioos:station:wmo:42048:1,1999-12-03T07:00:00Z,27.9396,-96.8429,2.0,331.3775803,3.736642878,-99999.0,'11133222,11111222,99999999' 
TABS,ioos:station:wmo:42048:1,1999-12-03T07:30:00Z,27.9396,-96.8429,2.0,306.3320665,2.768122107,-99999.0,'11133222,11111222,99999999' 
TABS,ioos:station:wmo:42048:1,1999-12-03T08:00:00Z,27.9396,-96.8429,2.0,294.6633016,6.063085023,-99999.0,'11133222,11111222,99999999' 
TABS,ioos:station:wmo:42048:1,1999-12-03T08:30:00Z,27.9396,-96.8429,2.0,319.2125208,4.33212419,-99999.0,'11133222,11111222,99999999' 
TABS,ioos:station:wmo:42048:1,1999-12-03T09:00:00Z,27.9396,-96.8429,2.0,297.3033076,4.861614958,-99999.0,'11133222,11111222,99999999' 
TABS,ioos:station:wmo:42048:1,1999-12-03T09:30:00Z,27.9396,-96.8429,2.0,308.9657606,4.977328601,-99999.0,'11133222,11111222,99999999' 
TABS,ioos:station:wmo:42048:1,1999-12-03T10:00:00Z,27.9396,-96.8429,2.0,315.0003157,2.319310242,-99999.0,'11133222,11111222,99999999' 
TABS,ioos:station:wmo:42048:1,1999-12-03T10:30:00Z,27.9396,-96.8429,2.0,339.9050263,1.746310396,-99999.0,'11133222,11111222,99999999' 
TABS,ioos:station:wmo:42048:1,1999-12-03T11:00:00Z,27.9396,-96.8429,2.0,321.3029463,4.766424236,-99999.0,'11133222,11111222,99999999' 
TABS,ioos:station:wmo:42048:1,1999-12-03T11:30:00Z,27.9396,-96.8429,2.0,299.3288472,4.266907545,-99999.0,'11133222,11111222,99999999' 
TABS,ioos:station:wmo:42048:1,1999-12-03T12:00:00Z,27.9396,-96.8429,2.0,32.31384949,3.348581789,-99999.0,'11133222,11111222,99999999' 
TABS,ioos:station:wmo:42048:1,1999-12-03T12:30:00Z,27.9396,-96.8429,2.0,337.9323625,0.798498591,-99999.0,'11133222,11111222,99999999' 
TABS,ioos:station:wmo:42048:1,1999-12-03T13:00:00Z,27.9396,-96.8429,2.0,324.0352896,4.052505398,-99999.0,'11133222,11111222,99999999' 
TABS,ioos:station:wmo:42048:1,1999-12-03T13:30:00Z,27.9396,-96.8429,2.0,355.5789314,1.945790328,-99999.0,'11133222,11111222,99999999' 
TABS,ioos:station:wmo:42048:1,1999-12-03T14:00:00Z,27.9396,-96.8429,2.0,18.3580023,2.34957443,-99999.0,'11133222,11111222,99999999' 
TABS,ioos:station:wmo:42048:1,1999-12-03T14:30:00Z,27.9396,-96.8429,2.0,281.251076,3.792888082,-99999.0,'11133222,11111222,99999999' 
TABS,ioos:station:wmo:42048:1,1999-12-03T15:00:00Z,27.9396,-96.8429,2.0,346.0545142,3.070504844,-99999.0,'11133222,11111222,99999999' 
TABS,ioos:station:wmo:42048:1,1999-12-03T15:30:00Z,27.9396,-96.8429,2.0,344.6564803,1.700617535,-99999.0,'11133222,11111222,99999999' 
TABS,ioos:station:wmo:42048:1,1999-12-03T16:00:00Z,27.9396,-96.8429,2.0,317.0604219,5.901084646,-99999.0,'11133222,11111222,99999999' 
TABS,ioos:station:wmo:42048:1,1999-12-03T16:30:00Z,27.9396,-96.8429,2.0,238.2086748,3.682458418,-99999.0,'11133222,11111222,99999999' 
TABS,ioos:station:wmo:42048:1,1999-12-03T17:00:00Z,27.9396,-96.8429,2.0,270.0004209,3.28,-99999.0,'11133222,11111222,99999999' 
TABS,ioos:station:wmo:42048:1,1999-12-03T17:30:00Z,27.9396,-96.8429,2.0,262.3545837,4.510088691,-99999.0,'11133222,11111222,99999999' 
TABS,ioos:station:wmo:42048:1,1999-12-03T18:00:00Z,27.9396,-96.8429,2.0,249.4786681,3.822564584,-99999.0,'11133222,11111222,99999999' 
TABS,ioos:station:wmo:42048:1,1999-12-03T18:30:00Z,27.9396,-96.8429,2.0,250.9010469,4.095424276,-99999.0,'11133222,11111222,99999999' 
TABS,ioos:station:wmo:42048:1,1999-12-03T19:00:00Z,27.9396,-96.8429,2.0,263.2372052,2.547724475,-99999.0,'11133222,11111222,99999999' 
TABS,ioos:station:wmo:42048:1,1999-12-03T19:30:00Z,27.9396,-96.8429,2.0,293.6044808,2.597306297,-99999.0,'11133222,11111222,99999999' 
TABS,ioos:station:wmo:42048:1,1999-12-03T20:00:00Z,27.9396,-96.8429,2.0,241.090463,1.530751449,-99999.0,'11133222,11111222,99999999' 
TABS,ioos:station:wmo:42048:1,1999-12-03T20:30:00Z,27.9396,-96.8429,2.0,262.1876656,3.310724996,-99999.0,'11133222,11111222,99999999' 
TABS,ioos:station:wmo:42048:1,1999-12-03T21:00:00Z,27.9396,-96.8429,2.0,256.658151,2.600173071,-99999.0,'11133222,11111222,99999999' 
TABS,ioos:station:wmo:42048:1,1999-12-03T21:30:00Z,27.9396,-96.8429,2.0,266.6065759,2.53444274,-99999.0,'11133222,11111222,99999999' 
TABS,ioos:station:wmo:42048:1,1999-12-03T22:00:00Z,27.9396,-96.8429,2.0,261.2090565,1.963058838,-99999.0,'11133222,11111222,99999999' 
TABS,ioos:station:wmo:42048:1,1999-12-03T22:30:00Z,27.9396,-96.8429,2.0,290.81676,3.348581789,-99999.0,'11133222,11111222,99999999' 
TABS,ioos:station:wmo:42048:1,1999-12-03T23:00:00Z,27.9396,-96.8429,2.0,326.9705491,4.091185647,-99999.0,'11133222,11111222,99999999' 
TABS,ioos:station:wmo:42048:1,1999-12-03T23:30:00Z,27.9396,-96.8429,2.0,273.0344535,2.833972477,-99999.0,'11133222,11111222,99999999' 
TABS,ioos:station:wmo:42048:1,1999-12-04T00:00:00Z,27.9396,-96.8429,2.0,276.7627948,2.547724475,-99999.0,'11133222,11111222,99999999' 
TABS,ioos:station:wmo:42048:1,1999-12-04T00:30:00Z,27.9396,-96.8429,2.0,315.0003157,2.743574311,-99999.0,'11133222,11111222,99999999' 
TABS,ioos:station:wmo:42048:1,1999-12-04T01:00:00Z,27.9396,-96.8429,2.0,24.12113717,1.468196172,-99999.0,'11133222,11111222,99999999' 
TABS,ioos:station:wmo:42048:1,1999-12-04T01:30:00Z,27.9396,-96.8429,2.0,325.0857684,1.817058062,-99999.0,'11133222,11111222,99999999' 
TABS,ioos:station:wmo:42048:1,1999-12-04T02:00:00Z,27.9396,-96.8429,2.0,310.55622,1.368831619,-99999.0,'11133222,11111222,99999999' 
TABS,ioos:station:wmo:42048:1,1999-12-04T02:30:00Z,27.9396,-96.8429,2.0,318.7122808,3.167412193,-99999.0,'11133222,11111222,99999999' 
TABS,ioos:station:wmo:42048:1,1999-12-04T03:00:00Z,27.9396,-96.8429,2.0,14.0364211,0.618465844,-99999.0,'11133222,11111222,99999999' 
TABS,ioos:station:wmo:42048:1,1999-12-04T03:30:00Z,27.9396,-96.8429,2.0,279.0353948,2.865554048,-99999.0,'11133222,11111222,99999999' 
TABS,ioos:station:wmo:42048:1,1999-12-04T04:00:00Z,27.9396,-96.8429,2.0,194.1492325,1.227232659,-99999.0,'11133222,11111222,99999999' 
TABS,ioos:station:wmo:42048:1,1999-12-04T04:30:00Z,27.9396,-96.8429,2.0,263.2372052,2.547724475,-99999.0,'11133222,11111222,99999999' 
TABS,ioos:station:wmo:42048:1,1999-12-04T05:00:00Z,27.9396,-96.8429,2.0,232.3551755,4.142378544,-99999.0,'11133222,11111222,99999999' 
TABS,ioos:station:wmo:42048:1,1999-12-04T05:30:00Z,27.9396,-96.8429,2.0,164.3804339,3.862641583,-99999.0,'11133222,11111222,99999999' 
TABS,ioos:station:wmo:42048:1,1999-12-04T06:00:00Z,27.9396,-96.8429,2.0,241.0568979,6.467804883,-99999.0,'11133222,11111222,99999999' 
TABS,ioos:station:wmo:42048:1,1999-12-04T06:30:00Z,27.9396,-96.8429,2.0,215.6677707,7.151573253,-99999.0,'11133222,11111222,99999999' 
TABS,ioos:station:wmo:42048:1,1999-12-04T07:00:00Z,27.9396,-96.8429,2.0,219.0528352,6.142458791,-99999.0,'11133222,11111222,99999999' 
TABS,ioos:station:wmo:42048:1,1999-12-04T07:30:00Z,27.9396,-96.8429,2.0,254.9072673,8.026867384,-99999.0,'11133222,11111222,99999999' 
TABS,ioos:station:wmo:42048:1,1999-12-04T08:00:00Z,27.9396,-96.8429,2.0,242.6966924,4.861614958,-99999.0,'11133222,11111222,99999999' 
TABS,ioos:station:wmo:42048:1,1999-12-04T08:30:00Z,27.9396,-96.8429,2.0,255.9916347,4.916197718,-99999.0,'11133222,11111222,99999999' 
TABS,ioos:station:wmo:42048:1,1999-12-04T09:00:00Z,27.9396,-96.8429,2.0,238.3102549,5.958338695,-99999.0,'11133222,11111222,99999999' 
TABS,ioos:station:wmo:42048:1,1999-12-04T09:30:00Z,27.9396,-96.8429,2.0,242.5125976,8.059832504,-99999.0,'11133222,11111222,99999999' 
TABS,ioos:station:wmo:42048:1,1999-12-04T10:00:00Z,27.9396,-96.8429,2.0,216.113544,6.820593816,-99999.0,'11133222,11111222,99999999' 
TABS,ioos:station:wmo:42048:1,1999-12-04T10:30:00Z,27.9396,-96.8429,2.0,241.804666,2.201181501,-99999.0,'11133222,11111222,99999999' 
TABS,ioos:station:wmo:42048:1,1999-12-04T11:00:00Z,27.9396,-96.8429,2.0,221.9656518,6.011763468,-99999.0,'11133222,11111222,99999999' 
TABS,ioos:station:wmo:42048:1,1999-12-04T11:30:00Z,27.9396,-96.8429,2.0,211.97052,7.025667228,-99999.0,'11133222,11111222,99999999' 
TABS,ioos:station:wmo:42048:1,1999-12-04T12:00:00Z,27.9396,-96.8429,2.0,224.9996843,7.170062761,-99999.0,'11133222,11111222,99999999' 
TABS,ioos:station:wmo:42048:1,1999-12-04T12:30:00Z,27.9396,-96.8429,2.0,212.8226047,5.497708614,-99999.0,'11133222,11111222,99999999' 
TABS,ioos:station:wmo:42048:1,1999-12-04T13:00:00Z,27.9396,-96.8429,2.0,206.5195571,5.66619802,-99999.0,'11133222,11111222,99999999' 
TABS,ioos:station:wmo:42048:1,1999-12-04T13:30:00Z,27.9396,-96.8429,2.0,182.4538155,7.006425622,-99999.0,'11133222,11111222,99999999' 
TABS,ioos:station:wmo:42048:1,1999-12-04T14:00:00Z,27.9396,-96.8429,2.0,215.5269801,6.401757571,-99999.0,'11133222,11111222,99999999' 
TABS,ioos:station:wmo:42048:1,1999-12-04T14:30:00Z,27.9396,-96.8429,2.0,213.6686516,7.521735172,-99999.0,'11133222,11111222,99999999' 
TABS,ioos:station:wmo:42048:1,1999-12-04T15:00:00Z,27.9396,-96.8429,2.0,197.9246585,5.328648984,-99999.0,'11133222,11111222,99999999' 
TABS,ioos:station:wmo:42048:1,1999-12-04T15:30:00Z,27.9396,-96.8429,2.0,207.0985735,7.200451375,-99999.0,'11133222,11111222,99999999' 
TABS,ioos:station:wmo:42048:1,1999-12-04T16:00:00Z,27.9396,-96.8429,2.0,218.2373105,3.603026506,-99999.0,'11133222,11111222,99999999' 